User: anonymous   Login
Location: Theydon Bois
(51.6750°N, 0.1050°E)
Time: 18:43:55
(UTC+01:00)
Language:

Cosmos 2056 Rocket - Orbit

View from above orbital plane
View from above orbital plane
View from above satellite
View from above satellite

Ground track
Ground track

The orbit data is extracted from the following two-line orbital elements,

1 20433U 90004B   18224.75230000 +.00000012 +00000-0 +13042-4 0  9996
2 20433 074.0369 302.2305 0041668 327.3816 176.0310 14.36037966495712
Epoch (UTC): 12 August 2018 18:03:18
Eccentricity: 0.0041668
inclination: 74.0369°
perigee height: 742 km
apogee height: 801 km
right ascension of ascending node: 302.2305°
argument of perigee: 327.3816°
revolutions per day: 14.36037966
mean anomaly at epoch: 176.0310°
orbit number at epoch: 49571

The dashed part of the orbit path shows where the satellite is in the earth's shadow,  

DLR